Miscellaneous Local Product
Issued by NWS Hastings, NE

Home | Current Version | Previous Version | Text Only | Print | Product List | Glossary Off
Versions: 1 2 3 4 5 6 7 8 9 10 11 12 13 14 15 16 17 18 19 20 21 22 23 24 25 26 27 28 29 30 31 32 33 34 35 36 37 38 39 40 41 42 43 44 45 46 47 48 49 50

856
AXUS43 KGID 230302
MISGRI

GID CWA HOURLY WEATHER ROUNDUP
NATIONAL WEATHER SERVICE HASTINGS NE
1000 PM CDT TUE AUG 22 2017

NOTE: "FAIR" INDICATES FEW OR NO CLOUDS BELOW 12,000 FEET WITH NO
SIGNIFICANT WEATHER AND/OR OBSTRUCTIONS TO VISIBILITY.

...SOUTH CENTRAL NEBRASKA...

CITY           SKY/WX    TMP DP  RH WIND       PRES   REMARKS
GRAND ISLAND   CLEAR     63  57  81 SE5       30.19R
HASTINGS       CLEAR     64  53  67 E6        30.19R
KEARNEY        CLEAR     65  56  72 S5        30.20R
ORD            CLEAR     61  56  83 CALM      30.17R
YORK           CLEAR     61  57  88 CALM      30.18R
AURORA         CLEAR     62  57  85 E5        30.18S
LEXINGTON      CLEAR     63  56  76 SE3       30.20R
HOLDREGE       CLEAR     61  57  87 CALM      30.20R
HEBRON         CLEAR     63  55  77 CALM      30.17S

...NEBRASKA PANHANDLE...

CITY           SKY/WX    TMP DP  RH WIND       PRES   REMARKS
CHADRON        CLEAR     74  47  38 S16       30.10S
ALLIANCE       CLEAR     63  50  62 SE10      30.17R
SCOTTSBLUFF    CLEAR     69  53  56 E12       30.15R
SIDNEY         CLOUDY    68  51  54 S13       30.20R

...WESTERN AND NORTH CENTRAL NEBRASKA...

CITY           SKY/WX    TMP DP  RH WIND       PRES   REMARKS
VALENTINE      CLEAR     68  49  50 SE9       30.15R
AINSWORTH      CLEAR     62  53  73 SE8       30.17R
ONEILL         CLEAR     64  55  72 SE5       30.17S
BROKEN BOW     CLEAR     62  55  77 CALM      30.19R
IMPERIAL       CLOUDY    61  52  72 SE8       30.20R
NORTH PLATTE   CLEAR     61  56  83 E8        30.19R
MCCOOK         CLOUDY    65  54  67 E7        30.20R

...EASTERN NEBRASKA...

CITY           SKY/WX    TMP DP  RH WIND       PRES   REMARKS
NORFOLK        CLEAR     57  55  93 S5        30.16R
SO SIOUX CITY  CLEAR     58  57  97 SW3       30.14R
TEKAMAH        CLEAR     61  56  83 CALM      30.14S
COLUMBUS       CLEAR     58  55  90 CALM      30.17S
ALBION         CLEAR     60  59  95 CALM      30.18S
OMAHA EPPLEY   PTCLDY    64  56  75 CALM      30.15R
OFFUTT AFB     CLEAR     59  54  85 CALM      30.14R
MILLARD        CLEAR     64  55  74 CALM      30.15S
LINCOLN        CLEAR     63  55  75 CALM      30.17R
NEBRASKA CITY  CLEAR     62  56  79 NW5       30.16R
BEATRICE       CLEAR     65  55  70 NE3       30.17R
FALLS CITY     CLEAR     63  54  72 NW3       30.14R

...NORTHERN KANSAS...

CITY           SKY/WX    TMP DP  RH WIND       PRES   REMARKS
GOODLAND       CLEAR     63  55  75 SE5       30.22R
HILL CITY      CLEAR     66  53  63 E6        30.20R
NORTON         CLEAR     61  50  67 E3        30.19R
PHILLIPSBURG   CLEAR     64  54  68 E5        30.19R
SMITH CENTER   PTCLDY    61  54  77 NE7       30.20R
HAYS           CLEAR     68  51  54 E10       30.18R
RUSSELL        CLEAR     67  50  54 NE9       30.17R
CONCORDIA      CLEAR     64  53  67 NE3       30.17R
SALINA         CLEAR     74  48  39 NE8       30.16R
TOPEKA         CLEAR     64  58  80 N7        30.14R



USA.gov is the U.S. government's official web portal to all federal, state and local government web resources and services.